Flag for U.S.A. Weather past 2 weeks in Bloomington, Indiana, U.S.A.

Now
50 °F

Clear.


Feels Like: 47 °F
Forecast: 45 / 73 °F
Wind: 8 mph from West

Location: Monroe County Airport

Current Time: May 22, 2015 at 7:33:46 AM

Latest Report: May 22, 2015 at 6:53 AM


Visibility: 10 mi

Pressure: 30.18 "Hg

Humidity: 74%

Dew point: 42 °F

Location of BloomingtonLocation

Historic Weather in Bloomington — Graph

°F

Bloomington temperature yesterday

Maximum temperature yesterday: 60 °F (at 6:53 PM)
Minimum temperature yesterday: 48 °F (at 2:53 AM)
Average temperature yesterday: 52 °F

Past Weeks' High & Low Weather Summary

 TemperatureHumidityPressure
High87 °F (May 7, 2:53 PM)97% (May 9, 9:58 PM)30.41 "Hg (May 9, 9:58 PM)
Low45 °F (May 13, 5:53 AM)29% (May 7, 2:53 PM)29.90 "Hg (May 11, 4:53 PM)
Average64 °F73%30.09 "Hg
* Reported May 7 5:53 AM — May 22 5:53 AM, Bloomington, Weather by CustomWeather, © 2015

Note: Actual official high and low records may vary slightly from our data, if they occured in-between our weather recording intervals... More about our weather records

Advertising

Bloomington weather history for previous 24 hours

 ConditionsComfort  
Time TempWeatherWind HumidityBarometerVisibility
5:53 AM
Fri, May 22
49 °FClear.7 mph77%30.17 "Hg10 mi
4:53 AM50 °FClear.8 mph74%30.16 "Hg10 mi
3:53 AM49 °FClear.7 mph77%30.14 "Hg10 mi
2:53 AM50 °FClear.7 mph77%30.14 "Hg10 mi
1:53 AM50 °FClear.5 mph77%30.14 "Hg10 mi
12:53 AM51 °FClear.7 mph74%30.15 "Hg10 mi
11:53 PM
Thu, May 21
51 °FClear.8 mph74%30.15 "Hg10 mi
10:53 PM51 °FClear.9 mph74%30.15 "Hg10 mi
9:53 PM52 °FSunny.6 mph72%30.13 "Hg10 mi
8:53 PM56 °FSunny.5 mph62%30.12 "Hg10 mi
7:53 PM59 °FSunny.9 mph51%30.11 "Hg10 mi
6:53 PM60 °FSunny.7 mph49%30.11 "Hg10 mi
5:53 PM58 °FPassing clouds.6 mph56%30.12 "Hg10 mi
4:53 PM58 °FBroken clouds.3 mph60%30.14 "Hg10 mi
3:53 PM55 °FPartly sunny.6 mph62%30.14 "Hg10 mi
2:53 PM55 °FMore clouds than sun.6 mph62%30.14 "Hg10 mi
1:53 PM56 °FCloudy.8 mph62%30.11 "Hg10 mi
12:53 PM53 °FMostly cloudy.7 mph72%30.11 "Hg10 mi
11:53 AM50 °FMostly cloudy.7 mph80%30.11 "Hg10 mi
10:53 AM49 °FCloudy.7 mph84%30.11 "Hg7 mi
9:53 AM50 °FMostly cloudy.6 mph80%30.11 "Hg9 mi
8:53 AM48 °FMostly cloudy.3 mph86%30.11 "Hg8 mi
7:53 AM48 °FMore clouds than sun.6 mph86%30.09 "Hg7 mi
Weather by CustomWeather, © 2015

See weather overviewHow to use our weather pages